CW3081 Weather Reports


time (UTC)temp
C
wind
direction
speed
KPH
gust
KPH
rain 1hr
cm
rain 24hr
cm
rain mn
cm
humidity
%
barometer
mb
20260508060048 6 0 0.0 0.0 0.00 0.00 0.00 91 1016.4
20260508054545 7 0 0.0 0.0 0.00 0.00 0.00 91 1016.3
20260508053109 7 0 0.0 0.0 0.00 0.00 0.00 91 1016.5
20260508051543 7 0 0.0 0.0 0.00 0.00 0.00 91 1016.5
20260508050044 7 0 0.0 0.0 0.00 0.00 0.00 90 1016.3
20260508044538 7 0 0.0 0.0 0.00 0.00 0.00 90 1016.3
20260508043046 7 0 0.0 0.0 0.00 0.00 0.00 89 1016.4
20260508041609 8 0 0.0 0.0 0.00 0.00 0.00 89 1016.5
20260508040120 8 0 0.0 0.0 0.00 0.00 0.00 89 1016.7
20260508034547 8 0 0.0 0.0 0.00 0.00 0.00 88 1016.6
20260508033038 8 0 0.0 0.0 0.00 0.00 0.00 88 1016.7
20260508031547 8 0 0.0 0.0 0.00 0.00 0.00 87 1016.4
20260508030046 9 0 0.0 0.0 0.00 0.00 0.00 87 1016.3
20260508024550 10 0 0.0 0.0 0.00 0.00 0.00 86 1016.1
20260508023039 10 0 0.0 0.0 0.00 0.00 0.00 85 1016.2
20260508021540 10 0 0.0 0.0 0.00 0.00 0.00 83 1016.1
20260508020046 11 0 0.0 0.0 0.00 0.00 0.00 81 1015.8
20260508014547 11 0 0.0 0.0 0.00 0.00 0.00 79 1016.0
20260508013044 12 0 0.0 0.0 0.00 0.00 0.00 75 1015.8
20260508011550 12 0 0.0 0.0 0.00 0.00 0.00 71 1015.6
20260508010039 13 0 0.0 0.0 0.00 0.00 0.00 67 1015.4
20260508004555 13 0 0.0 0.0 0.00 0.00 0.00 66 1015.2
20260508003040 15 0 0.0 0.0 0.00 0.00 0.00 63 1015.1
20260508001541 15 0 0.0 0.0 0.00 0.00 0.00 62 1014.9
20260508000047 15 0 0.0 0.0 0.00 0.00 0.00 60 1014.8
20260507234551 16 0 0.0 0.0 0.00 0.00 0.00 59 1014.8
20260507233057 16 0 0.0 0.0 0.00 0.00 0.00 60 1014.7
20260507231548 16 0 0.0 1.6 0.00 0.00 0.00 53 1014.5
20260507230043 16 0 0.0 1.6 0.00 0.00 0.00 53 1014.6
20260507224554 17 27 0.0 1.6 0.00 0.00 0.00 59 1014.6
20260507223047 17 0 0.0 1.6 0.00 0.00 0.00 51 1014.6
20260507221543 17 1 0.0 1.6 0.00 0.00 0.00 54 1014.6
20260507220050 17 0 0.0 3.2 0.00 0.00 0.00 49 1014.8
20260507214545 17 350 0.0 3.2 0.00 0.00 0.00 49 1014.9
20260507213058 17 305 0.0 4.8 0.00 0.00 0.00 50 1014.6
20260507211547 17 0 0.0 1.6 0.00 0.00 0.00 53 1014.5
20260507210049 17 0 1.6 4.8 0.00 0.00 0.00 49 1014.6
20260507204542 17 258 0.0 4.8 0.00 0.00 0.00 52 1014.5
20260507203046 17 348 0.0 4.8 0.00 0.00 0.00 47 1014.6
20260507201546 17 327 1.6 3.2 0.00 0.00 0.00 49 1014.7
20260507200047 17 339 0.0 6.4 0.00 0.00 0.00 50 1014.8
20260507194615 17 0 1.6 3.2 0.00 0.00 0.00 49 1014.6
20260507193048 17 273 1.6 4.8 0.00 0.00 0.00 55 1014.8
20260507191547 17 280 1.6 6.4 0.00 0.00 0.00 50 1015.1
20260507190051 17 268 0.0 3.2 0.00 0.00 0.00 50 1015.1
20260507184540 17 283 0.0 3.2 0.00 0.00 0.00 54 1015.2
20260507183048 17 0 1.6 4.8 0.00 0.00 0.00 50 1015.1
20260507181554 17 6 0.0 4.8 0.00 0.00 0.00 51 1015.2
20260507180046 17 344 0.0 3.2 0.00 0.00 0.00 56 1015.2
20260507174554 16 0 0.0 3.2 0.00 0.00 0.00 56 1015.4
20260507173113 16 324 1.6 3.2 0.00 0.00 0.00 55 1015.8
20260507171554 16 0 0.0 4.8 0.00 0.00 0.00 59 1016.1
20260507170107 15 321 0.0 6.4 0.00 0.00 0.00 60 1016.3
20260507164553 15 297 1.6 3.2 0.00 0.00 0.00 62 1016.3
20260507163047 15 294 1.6 4.8 0.00 0.00 0.00 65 1016.3
20260507161559 15 0 0.0 4.8 0.00 0.00 0.00 66 1016.4
20260507160044 14 336 0.0 9.7 0.00 0.00 0.00 69 1016.2
20260507154549 13 0 0.0 3.2 0.00 0.00 0.00 73 1016.5
20260507153051 13 308 0.0 3.2 0.00 0.00 0.00 74 1016.3
20260507151546 13 168 0.0 3.2 0.00 0.00 0.00 74 1016.3
20260507150049 12 15 0.0 3.2 0.00 0.00 0.00 76 1016.3
20260507144546 12 0 0.0 4.8 0.00 0.00 0.00 82 1016.4
20260507143048 11 0 0.0 1.6 0.00 0.00 0.00 85 1016.4
20260507141559 11 0 0.0 1.6 0.00 0.00 0.00 88 1016.3
20260507140045 11 0 0.0 3.2 0.00 0.00 0.00 89 1016.3
20260507134545 10 337 0.0 1.6 0.00 0.00 0.00 92 1016.1
20260507133049 10 0 0.0 0.0 0.00 0.00 0.00 95 1016.1
20260507131548 10 0 0.0 0.0 0.00 0.00 0.00 96 1016.1
20260507130046 9 0 0.0 0.0 0.00 0.00 0.00 96 1016.0
20260507124544 8 0 0.0 0.0 0.00 0.00 0.00 97 1015.8
20260507123045 8 0 0.0 0.0 0.00 0.00 0.00 97 1015.8
20260507121544 8 0 0.0 0.0 0.00 0.00 0.00 97 1015.7
20260507120045 -17 0.0 0.0 0.00 0.00 0.00 1015.7
20260507114542 -17 0.0 0.0 0.00 0.00 0.00 1015.6
20260507113050 -17 0.0 0.0 0.00 0.00 0.00 1015.3
20260507111543 -17 0.0 0.0 0.00 0.00 0.00 1015.2
20260507110046 -17 0.0 0.0 0.00 0.00 0.00 1014.7
20260507104538 -17 0.0 0.0 0.00 0.00 0.00 1014.5
20260507103047 -17 0.0 0.0 0.00 0.00 0.00 1014.4
20260507101545 8 0 0.0 0.0 0.00 0.00 0.00 96 1014.3
20260507100046 8 0 0.0 0.0 0.00 0.00 0.00 96 1014.4
20260507094549 9 0 0.0 0.0 0.00 0.00 0.00 96 1014.4
20260507093038 9 0 0.0 0.0 0.00 0.00 0.00 96 1014.2
20260507091547 9 0 0.0 0.0 0.00 0.00 0.00 96 1014.2
20260507090047 10 0 0.0 0.0 0.00 0.00 0.00 97 1014.4
20260507084541 10 0 0.0 0.0 0.00 0.00 0.00 97 1014.2
20260507083044 10 0 0.0 0.0 0.00 0.00 0.00 97 1014.2
20260507081544 10 0 0.0 0.0 0.00 0.00 0.00 97 1014.4
20260507080041 10 0 0.0 0.0 0.00 0.00 0.00 97 1014.2
20260507074550 10 0 0.0 0.0 0.00 0.00 0.00 97 1014.1
20260507073104 10 0 0.0 0.0 0.00 0.00 0.00 97 1014.2
20260507071543 10 0 0.0 0.0 0.00 0.00 0.00 97 1014.2
20260507070049 10 0 0.0 0.0 0.00 0.00 0.00 97 1014.5
20260507064604 10 0 0.0 0.0 0.00 0.00 0.00 97 1014.4
20260507063056 10 0 0.0 0.0 0.00 0.00 0.00 97 1014.5
20260507061543 10 0 0.0 0.0 0.00 0.00 0.00 97 1014.6